Weather History for Fort Dodge, IA

Change the Weather History Date:

Saturday, May 18, 2013

  Actual Average Record
Temperature  
Mean Temperature 72 °F -  
Max Temperature 82 °F 75 °F 94 °F (1967)
Min Temperature 62 °F 51 °F 35 °F (2002)
Cooling Degree Days 7    
Growing Degree Days 22 (Base 50)    
Moisture  
Dew Point 61 °F    
Average Humidity 67    
Maximum Humidity 83    
Minimum Humidity 48    
Precipitation  
Precipitation 0.00 in - - ()
Sea Level Pressure  
Sea Level Pressure 29.88 in    
Wind  
Wind Speed 8 mph (SSE)    
Max Wind Speed 14 mph    
Max Gust Speed 20 mph    
Visibility 10 miles    
Events      
Averages and records for this station are not official NWS values.
T = Trace of Precipitation, MM = Missing Value Source: NWS Daily Summary

Daily Weather History Graph

Daily Weather History Graph

Search for Another Location

Airport:

Trip Planner

Search our weather history database for the weather conditions in past years. The results will help you decide how hot, cold, wet, or windy it might be!

Date:

Astronomy

May. 18, 2013 Rise Set
Actual Time 5:51 AM CDT 8:35 PM CDT
Civil Twilight 5:18 AM CDT 9:08 PM CDT
Nautical Twilight 4:37 AM CDT 9:49 PM CDT
Astronomical Twilight 3:50 AM CDT 10:36 PM CDT
Moon 1:30 PM CDT (5/18) 1:53 AM CDT (5/18)
Length of Visible Light 15h 49m
Length of Day
14h 43m
First Quarter, 55% of the Moon is Illuminated
May 18
First Quarter
May 24
Full
May 31
Last Quarter
Jun 8
New
Jun 16
First Quarter

Hourly Weather History & Observations

Time (CDT) Temp. Heat Index Dew Point Humidity Pressure Visibility Wind Dir Wind Speed Gust Speed Precip Events Conditions
12:15 AM 69.8 °F - 59.0 °F 68% 29.94 in 10.0 mi South 8.1 mph - N/A   Clear
12:35 AM 68.0 °F - 59.0 °F 73% 29.94 in 10.0 mi South 9.2 mph - N/A   Clear
12:55 AM 68.0 °F - 59.0 °F 73% 29.94 in 10.0 mi South 8.1 mph - N/A   Clear
1:15 AM 68.0 °F - 59.0 °F 73% 29.93 in 10.0 mi South 6.9 mph - N/A   Clear
1:35 AM 68.0 °F - 59.0 °F 73% 29.94 in 10.0 mi South 6.9 mph - N/A   Clear
1:55 AM 66.2 °F - 59.0 °F 78% 29.93 in 10.0 mi South 6.9 mph - N/A   Clear
2:15 AM 66.2 °F - 59.0 °F 78% 29.93 in 10.0 mi South 6.9 mph - N/A   Clear
2:35 AM 66.2 °F - 59.0 °F 78% 29.93 in 10.0 mi South 5.8 mph - N/A   Clear
2:55 AM 66.2 °F - 57.2 °F 73% 29.93 in 10.0 mi South 5.8 mph - N/A   Clear
3:15 AM 66.2 °F - 57.2 °F 73% 29.93 in 10.0 mi South 5.8 mph - N/A   Clear
3:35 AM 64.4 °F - 57.2 °F 77% 29.93 in 10.0 mi South 6.9 mph - N/A   Clear
3:55 AM 64.4 °F - 57.2 °F 77% 29.92 in 10.0 mi SSE 6.9 mph - N/A   Clear
4:15 AM 64.4 °F - 57.2 °F 77% 29.92 in 10.0 mi South 5.8 mph - N/A   Clear
4:35 AM 64.4 °F - 57.2 °F 77% 29.92 in 10.0 mi South 5.8 mph - N/A   Clear
4:55 AM 62.6 °F - 57.2 °F 82% 29.93 in 10.0 mi South 4.6 mph - N/A   Clear
5:15 AM 62.6 °F - 57.2 °F 82% 29.93 in 10.0 mi South 6.9 mph - N/A   Clear
5:35 AM 62.6 °F - 57.2 °F 82% 29.93 in 10.0 mi South 5.8 mph - N/A   Clear
5:55 AM 62.6 °F - 57.2 °F 82% 29.94 in 10.0 mi South 5.8 mph - N/A   Clear
6:15 AM 62.6 °F - 57.2 °F 82% 29.93 in 10.0 mi SSE 5.8 mph - N/A   Clear
6:35 AM 62.6 °F - 57.2 °F 82% 29.94 in 10.0 mi SSE 5.8 mph - N/A   Clear
6:55 AM 64.4 °F - 59.0 °F 83% 29.94 in 10.0 mi SSE 5.8 mph - N/A   Clear
7:15 AM 64.4 °F - 59.0 °F 83% 29.93 in 10.0 mi SSE 6.9 mph - N/A   Clear
7:35 AM 64.4 °F - 59.0 °F 83% 29.94 in 10.0 mi South 5.8 mph - N/A   Clear
7:55 AM 66.2 °F - 60.8 °F 83% 29.94 in 10.0 mi South 5.8 mph - N/A   Clear
8:15 AM 66.2 °F - 60.8 °F 83% 29.95 in 10.0 mi South 4.6 mph - N/A   Clear
8:35 AM 68.0 °F - 60.8 °F 78% 29.96 in 10.0 mi SSW 6.9 mph - N/A   Clear
8:55 AM 69.8 °F - 60.8 °F 73% 29.96 in 10.0 mi South 6.9 mph - N/A   Clear
9:15 AM 71.6 °F - 62.6 °F 73% 29.96 in 10.0 mi South 8.1 mph - N/A   Clear
9:35 AM 71.6 °F - 62.6 °F 73% 29.96 in 10.0 mi SSE 9.2 mph - N/A   Clear
9:55 AM 73.4 °F - 62.6 °F 69% 29.95 in 10.0 mi SE 6.9 mph - N/A   Clear
10:15 AM 73.4 °F - 62.6 °F 69% 29.94 in 10.0 mi SSE 6.9 mph - N/A   Mostly Cloudy
10:35 AM 73.4 °F - 62.6 °F 69% 29.94 in 10.0 mi South 6.9 mph - N/A   Mostly Cloudy
10:55 AM 73.4 °F - 62.6 °F 69% 29.94 in 10.0 mi South 8.1 mph - N/A   Mostly Cloudy
11:15 AM 75.2 °F - 62.6 °F 65% 29.94 in 10.0 mi SSW 6.9 mph - N/A   Overcast
11:35 AM 73.4 °F - 62.6 °F 69% 29.94 in 10.0 mi South 4.6 mph - N/A   Overcast
11:55 AM 75.2 °F - 62.6 °F 65% 29.94 in 10.0 mi SSE 6.9 mph - N/A   Overcast
12:15 PM 75.2 °F - 62.6 °F 65% 29.93 in 10.0 mi SSE 5.8 mph - N/A   Overcast
12:35 PM 75.2 °F - 62.6 °F 65% 29.92 in 10.0 mi SE 6.9 mph - N/A   Overcast
12:55 PM 78.8 °F - 62.6 °F 57% 29.91 in 10.0 mi SSE 8.1 mph - N/A   Overcast
1:15 PM 78.8 °F - 62.6 °F 57% 29.90 in 10.0 mi SSE 12.7 mph - N/A   Overcast
1:35 PM 78.8 °F - 62.6 °F 57% 29.89 in 10.0 mi SE 8.1 mph - N/A   Overcast
2:15 PM 80.6 °F 81.8 °F 62.6 °F 54% 29.87 in 10.0 mi SSE 12.7 mph 18.4 mph N/A   Partly Cloudy
2:35 PM 82.4 °F 83.4 °F 62.6 °F 51% 29.86 in 10.0 mi SSE 10.4 mph 16.1 mph N/A   Partly Cloudy
2:55 PM 82.4 °F 83.4 °F 62.6 °F 51% 29.86 in 10.0 mi SSE 12.7 mph 16.1 mph N/A   Mostly Cloudy
3:15 PM 82.4 °F 83.9 °F 64.4 °F 54% 29.84 in 10.0 mi SE 11.5 mph 18.4 mph N/A   Mostly Cloudy
3:35 PM 80.6 °F 81.8 °F 62.6 °F 54% 29.84 in 10.0 mi SE 12.7 mph 17.3 mph N/A   Mostly Cloudy
3:55 PM 80.6 °F 81.8 °F 62.6 °F 54% 29.83 in 10.0 mi SSE 13.8 mph 19.6 mph N/A   Overcast
4:15 PM 80.6 °F 81.8 °F 62.6 °F 54% 29.83 in 10.0 mi SSE 10.4 mph 17.3 mph N/A   Overcast
4:35 PM 82.4 °F 83.4 °F 62.6 °F 51% 29.83 in 10.0 mi SSE 9.2 mph - N/A   Overcast
4:55 PM 80.6 °F 81.5 °F 60.8 °F 51% 29.83 in 10.0 mi SSE 10.4 mph 19.6 mph N/A   Overcast
5:15 PM 80.6 °F 81.8 °F 62.6 °F 54% 29.83 in 10.0 mi South 13.8 mph 18.4 mph N/A   Overcast
5:35 PM 82.4 °F 82.9 °F 60.8 °F 48% 29.84 in 10.0 mi SSE 9.2 mph 16.1 mph N/A   Overcast
5:55 PM 82.4 °F 83.4 °F 62.6 °F 51% 29.84 in 10.0 mi SSE 9.2 mph 19.6 mph N/A   Overcast
6:15 PM 80.6 °F 81.8 °F 62.6 °F 54% 29.83 in 10.0 mi South 13.8 mph 19.6 mph N/A   Overcast
6:35 PM 80.6 °F 81.8 °F 62.6 °F 54% 29.83 in 10.0 mi South 13.8 mph 19.6 mph N/A   Mostly Cloudy
6:55 PM 80.6 °F 81.8 °F 62.6 °F 54% 29.83 in 10.0 mi SSE 10.4 mph 17.3 mph N/A   Mostly Cloudy
7:15 PM 80.6 °F 81.8 °F 62.6 °F 54% 29.82 in 10.0 mi SE 10.4 mph - N/A   Scattered Clouds
7:35 PM 78.8 °F - 62.6 °F 57% 29.81 in 10.0 mi SE 9.2 mph - N/A   Partly Cloudy
7:55 PM 78.8 °F - 62.6 °F 57% 29.80 in 10.0 mi SE 10.4 mph - N/A   Clear
8:15 PM 77.0 °F - 62.6 °F 61% 29.79 in 10.0 mi SE 9.2 mph - N/A   Clear
8:35 PM 77.0 °F - 62.6 °F 61% 29.78 in 10.0 mi SE 9.2 mph - N/A   Clear
8:55 PM 75.2 °F - 62.6 °F 65% 29.79 in 10.0 mi SE 10.4 mph - N/A   Clear
9:15 PM 75.2 °F - 62.6 °F 65% 29.80 in 10.0 mi SE 6.9 mph - N/A   Clear
9:35 PM 73.4 °F - 62.6 °F 69% 29.81 in 10.0 mi SE 8.1 mph - N/A   Clear
9:55 PM 73.4 °F - 62.6 °F 69% 29.81 in 10.0 mi SE 9.2 mph - N/A   Clear
10:15 PM 73.4 °F - 60.8 °F 65% 29.80 in 10.0 mi SE 10.4 mph 16.1 mph N/A   Clear
10:35 PM 73.4 °F - 60.8 °F 65% 29.79 in 10.0 mi SE 10.4 mph - N/A   Clear
10:55 PM 73.4 °F - 60.8 °F 65% 29.78 in 10.0 mi SE 11.5 mph - N/A   Clear
11:15 PM 71.6 °F - 60.8 °F 69% 29.77 in 10.0 mi SE 13.8 mph 19.6 mph N/A   Clear
11:35 PM 71.6 °F - 62.6 °F 73% 29.77 in 10.0 mi SE 13.8 mph 18.4 mph N/A   Clear
11:55 PM 71.6 °F - 62.6 °F 73% 29.76 in 10.0 mi SE 11.5 mph - N/A   Clear